Regional Weather Roundup
Issued by NWS Northern Indiana

Home | Current Version | Previous Version | Text Only | Print | Product List | Glossary Off
Versions: 1 2 3 4 5 6 7 8 9 10 11 12 13 14 15 16 17 18 19 20 21 22 23 24 25 26 27 28 29 30 31 32 33 34 35 36 37 38 39 40 41 42 43 44 45 46 47 48 49 50

107
ASUS43 KIWX 280800
RWRIWX

KIWX WEATHER ROUNDUP
NATIONAL WEATHER SERVICE NORTHERN INDIANA
400 AM EDT TUE MAR 28 2017

NOTE: "FAIR" INDICATES FEW OR NO CLOUDS BELOW 12,000 FEET WITH NO
SIGNIFICANT WEATHER AND/OR OBSTRUCTIONS TO VISIBILITY.

* THESE STATIONS ARE NOT UNDER NWS QUALITY CONTROL. THEY ALSO MAY NOT
  REPORT WEATHER SUCH AS PRECIPITATION OR FOG.

INZ001>027-280900-
NORTHERN INDIANA

CITY           SKY/WX    TMP DP  RH WIND       PRES   REMARKS
KNOX*          MOCLDY    37  28  70 N9        29.94S
SOUTH BEND     CLEAR     38  36  92 N7        29.95R
GOSHEN         CLOUDY    46  41  82 N10       29.92R
MONTICELLO*    CLOUDY    43  40  90 N14       29.92S
ANGOLA*        MOCLDY    46  37  71 N6        29.89R
FORT WAYNE     CLOUDY    52  48  86 N9        29.88R
PERU/GRISSOM   CLOUDY    50  50 100 N12       29.88R

$$
INZ028>050-280900-
CENTRAL INDIANA

CITY           SKY/WX    TMP DP  RH WIND       PRES   REMARKS
LAFAYETTE      CLOUDY    46  44  93 N14       29.91R
KOKOMO*        CLOUDY    52  50  93 N12       29.89R FOG
MUNCIE*        CLOUDY    54  52  93 NE10      29.85S
INDIANAPOLIS   CLOUDY    55  53  93 N10       29.85R

$$
MIZ043>046-050>051-056>058-064>065-071>073-077>080-280900-
SOUTHWEST LOWER MICHIGAN

CITY           SKY/WX    TMP DP  RH WIND       PRES   REMARKS
BATTLE CREEK   CLOUDY    46  42  86 N8        29.93S
BENTON HARBOR  CLOUDY    39  35  86 N6        29.96S
COLDWATER*     CLOUDY    46  45  93 N8        29.91S
HILLSDALE*     CLOUDY    46  45  93 N6        29.89S FOG
HOLLAND        CLOUDY    41  37  86 N5        29.97S
GRAND RAPIDS   CLOUDY    43  41  93 N8        29.95S
KALAMAZOO      CLOUDY    44  39  82 N8        29.93S
STURGIS*       CLOUDY    45  43  93 N9        29.91R
THREE RIVERS*  CLOUDY    44  41  89 N6        29.93S

$$
OHZ001>008-015>018-024>025-280900-
NORTHWEST OHIO

CITY           SKY/WX    TMP DP  RH WIND       PRES   REMARKS
DEFIANCE       CLOUDY    50  47  89 N8        29.88R
FINDLAY        RAIN      53  49  86 NE5       29.86R FOG
TOLEDO EXPRESS CLOUDY    51  48  89 N9        29.87S
TOLEDO METCALF CLOUDY    49  48  97 NE7       29.88R FOG
LIMA           LGT RAIN  52  52 100 N7        29.85F FOG

$$
AND FOR LAKE MICHIGAN COASTAL AND OPEN LAKE BUOY OBSERVATIONS

STATION/POSITION TEMP    WIND        PRES    VSBY  WAVE
                 AIR SEA DIR/SP/G                  HT/PER
                 (F)     (DEG/KT/KT) (MB)    (MI)  (FT/S)
CALUMET HARBOR    38     340/ 10/ 16 1014.6F
MICHIGAN CITY     38     350/ 13/ 14   N/A
BURNS HARBOR      38     350/  9/ 11 1015.2S
SAINT JOSEPH      39      10/  8/ 10 1015.6

$$
&&




USA.gov is the U.S. government's official web portal to all federal, state and local government web resources and services.